Location: Mountain Grove
(34.0887°N, 86.6172°W)
Time: 00:57:25
(UTC+00:00)

SPOT 1/Viking Rocket - Pass Details

Date: 14 July 2020
Orbit: 778 x 793 km, 98.5° (Epoch: 12 August)

Event Time Altitude Azimuth Distance (km) Brightness Sun altitude
Exits shadow 03:26:27 54° 197° (SSW) 941 3.7 -24.4°
Maximum altitude 03:27:31 71° 258° (WSW) 826 3.6 -24.5°
Drops below altitude 10° 03:32:41 10° 343° (NNW) 2,347 6.9 -25.1°
Sets 03:35:02 0° 345° (NNW) 3,282 7.9 -25.4°
